timestamp,surface_pressure_avg,surface_temp_avg,battery_voltage,lat,long
2020-04-28 00:09:01+00:00,274.0413,3.66,13.21,47.84626,-54.09684
2020-04-28 00:19:01+00:00,282.0781,3.59,12.89,47.84626,-54.09684
2020-04-28 00:29:01+00:00,292.0297,3.6,12.89,47.84626,-54.09684
2020-04-28 00:39:01+00:00,302.853,3.6,12.89,47.84626,-54.09684
2020-04-28 00:49:01+00:00,308.1013,3.5,12.89,47.84626,-54.09684
2020-04-28 00:59:01+00:00,308.7864,3.4,12.89,47.84626,-54.09684
2020-04-28 01:09:01+00:00,312.6563,3.4,12.89,47.84626,-54.09684
2020-04-28 01:19:01+00:00,320.2864,3.18,12.65,47.84626,-54.09684
2020-04-28 01:29:01+00:00,324.7531,2.62,12.65,47.84626,-54.09684
2020-04-28 01:39:01+00:00,322.273,2.99,12.65,47.84626,-54.09684
2020-04-28 01:49:01+00:00,319.4413,3.1,12.65,47.84626,-54.09684
2020-04-28 01:59:01+00:00,330.408,3.2,12.65,47.84626,-54.09684
2020-04-28 02:09:01+00:00,334.7246,3.1,12.65,47.84626,-54.09684
2020-04-28 02:19:01+00:00,335.5863,2.9,12.65,47.84626,-54.09684
2020-04-28 02:29:01+00:00,340.2529,3.0,12.65,47.84626,-54.09684
2020-04-28 02:39:01+00:00,353.7029,3.0,12.65,47.84626,-54.09684
2020-04-28 02:49:01+00:00,356.1896,2.92,12.65,47.84626,-54.09684
2020-04-28 02:59:01+00:00,348.3413,3.2,12.65,47.84626,-54.09684
2020-04-28 03:09:01+00:00,343.0831,3.3,12.65,47.84626,-54.09684
2020-04-28 03:19:01+00:00,348.4181,3.2,12.65,47.84626,-54.09684
2020-04-28 03:29:01+00:00,342.3547,3.19,12.65,47.84626,-54.09684
2020-04-28 03:39:01+00:00,328.1113,3.15,12.65,47.84626,-54.09684
2020-04-28 03:49:01+00:00,327.7579,3.2,12.65,47.84626,-54.09684
2020-04-28 03:59:01+00:00,331.6413,3.12,12.65,47.84626,-54.09684
2020-04-28 04:09:01+00:00,323.4597,3.2,12.65,47.84626,-54.09684
2020-04-28 04:19:01+00:00,315.8446,3.3,12.65,47.84626,-54.09684
2020-04-28 04:29:01+00:00,319.7679,3.2,12.65,47.84626,-54.09684
2020-04-28 04:39:01+00:00,316.7547,3.1,12.65,47.84626,-54.09684
2020-04-28 04:49:01+00:00,310.0547,3.1,12.65,47.84626,-54.09684
2020-04-28 04:59:01+00:00,312.6512,3.1,12.65,47.84626,-54.09684
2020-04-28 05:09:01+00:00,307.623,3.1,12.65,47.84626,-54.09684
2020-04-28 05:19:01+00:00,292.673,3.1,12.57,47.84626,-54.09684
2020-04-28 05:29:01+00:00,285.063,3.17,12.57,47.84626,-54.09684
2020-04-28 05:39:01+00:00,275.3964,3.2,12.57,47.84626,-54.09684
2020-04-28 05:49:01+00:00,261.0864,3.26,12.57,47.84626,-54.09684
2020-04-28 05:59:01+00:00,255.1215,3.28,12.57,47.84626,-54.09684
2020-04-28 06:09:01+00:00,252.4131,3.25,12.57,47.84626,-54.09684
2020-04-28 06:19:01+00:00,240.3014,3.4,12.57,47.84626,-54.09684
2020-04-28 06:29:01+00:00,227.3865,3.4,12.57,47.84626,-54.09684
2020-04-28 06:39:01+00:00,224.1397,3.51,12.57,47.84626,-54.09684
2020-04-28 06:49:01+00:00,223.5698,3.63,12.57,47.84626,-54.09684
2020-04-28 06:59:01+00:00,217.5197,3.7,12.57,47.84626,-54.09684
2020-04-28 07:09:01+00:00,212.5381,3.6,12.57,47.84626,-54.09684
2020-04-28 07:19:01+00:00,209.7948,3.75,12.57,47.84626,-54.09684
2020-04-28 07:29:01+00:00,201.8381,3.8,12.57,47.84626,-54.09684
2020-04-28 07:39:01+00:00,193.3448,3.89,12.57,47.84626,-54.09684
2020-04-28 07:49:01+00:00,193.2865,3.9,12.57,47.84626,-54.09684
2020-04-28 07:59:01+00:00,192.4881,4.02,12.57,47.84626,-54.09684
2020-04-28 08:09:01+00:00,190.6165,3.8,12.57,47.84626,-54.09684
2020-04-28 08:19:01+00:00,194.1981,3.8,12.57,47.84626,-54.09684
2020-04-28 08:29:01+00:00,201.2815,3.54,12.57,47.84626,-54.09684
2020-04-28 08:39:01+00:00,195.2581,3.5,12.57,47.84626,-54.09684
2020-04-28 08:49:01+00:00,192.4981,3.4,12.57,47.84626,-54.09684
2020-04-28 08:59:01+00:00,200.8681,3.4,12.57,47.84626,-54.09684
2020-04-28 09:09:01+00:00,199.3714,3.4,12.57,47.84626,-54.09684
2020-04-28 09:19:01+00:00,192.0081,3.52,12.57,47.84626,-54.09684
2020-04-28 09:29:01+00:00,201.6198,3.59,12.57,47.84626,-54.09684
2020-04-28 09:39:01+00:00,216.4731,3.6,12.57,47.84626,-54.09684
2020-04-28 09:49:01+00:00,210.8531,3.68,12.57,47.84626,-54.09684
2020-04-28 09:59:01+00:00,202.2398,3.8,12.57,47.84626,-54.09684
2020-04-28 10:09:01+00:00,215.6165,3.81,12.57,47.84626,-54.09684
2020-04-28 10:19:01+00:00,230.4231,3.9,12.81,47.84626,-54.09684
2020-04-28 10:29:01+00:00,228.0331,3.9,12.81,47.84626,-54.09684
2020-04-28 10:39:01+00:00,224.5648,3.9,12.81,47.84626,-54.09684
2020-04-28 10:49:01+00:00,228.7414,3.94,12.81,47.84626,-54.09684
2020-04-28 10:59:01+00:00,229.1081,3.97,12.81,47.84626,-54.09684
2020-04-28 11:09:01+00:00,224.0914,3.96,12.81,47.84626,-54.09684
2020-04-28 11:19:01+00:00,228.7248,3.8,13.84,47.84626,-54.09684
2020-04-28 11:29:01+00:00,239.1464,3.89,13.84,47.84626,-54.09684
2020-04-28 11:39:01+00:00,239.2765,3.9,13.84,47.84626,-54.09684
2020-04-28 11:49:01+00:00,246.7647,3.9,13.84,47.84626,-54.09684
2020-04-28 11:59:01+00:00,255.9181,3.88,13.84,47.84626,-54.09684
2020-04-28 12:09:01+00:00,251.9898,3.9,13.84,47.84626,-54.09684
2020-04-28 12:19:01+00:00,254.1598,3.9,14.48,47.84626,-54.09684
2020-04-28 12:29:01+00:00,261.3014,3.8,14.48,47.84626,-54.09684
2020-04-28 12:39:01+00:00,260.443,3.8,14.48,47.84626,-54.09684
2020-04-28 12:49:01+00:00,258.8281,3.74,14.48,47.84626,-54.09684
2020-04-28 12:59:01+00:00,273.0197,3.7,14.48,47.84626,-54.09684
2020-04-28 13:09:01+00:00,281.3197,3.5,14.48,47.84626,-54.09684
2020-04-28 13:19:01+00:00,284.6847,3.48,14.4,47.84626,-54.09684
2020-04-28 13:29:01+00:00,295.1564,3.4,14.4,47.84626,-54.09684
2020-04-28 13:39:01+00:00,310.818,3.4,14.4,47.84626,-54.09684
2020-04-28 13:49:01+00:00,314.868,3.5,14.4,47.84626,-54.09684
2020-04-28 13:59:01+00:00,313.4047,3.33,14.4,47.84626,-54.09684
2020-04-28 14:09:01+00:00,310.1564,3.3,14.4,47.84626,-54.09684
2020-04-28 14:19:01+00:00,310.2397,3.29,14.24,47.84626,-54.09684
2020-04-28 14:29:01+00:00,314.3813,3.17,14.24,47.84626,-54.09684
2020-04-28 14:39:01+00:00,318.4296,3.1,14.24,47.84626,-54.09684
2020-04-28 14:49:01+00:00,318.7714,3.2,14.24,47.84626,-54.09684
2020-04-28 14:59:01+00:00,325.3214,3.29,14.24,47.84626,-54.09684
2020-04-28 15:09:01+00:00,327.963,3.39,14.24,47.84626,-54.09684
2020-04-28 15:19:01+00:00,327.453,3.4,14.24,47.84626,-54.09684
2020-04-28 15:29:01+00:00,324.4014,3.44,14.24,47.84626,-54.09684
2020-04-28 15:39:01+00:00,318.058,3.49,14.24,47.84626,-54.09684
2020-04-28 15:49:01+00:00,318.1714,3.5,14.24,47.84626,-54.09684
2020-04-28 15:59:01+00:00,316.1163,3.4,14.24,47.84626,-54.09684
2020-04-28 16:09:01+00:00,308.5464,3.3,14.24,47.84626,-54.09684
2020-04-28 16:19:01+00:00,301.7247,3.3,14.32,47.84626,-54.09684
2020-04-28 16:29:01+00:00,301.2681,3.36,14.32,47.84626,-54.09684
2020-04-28 16:39:01+00:00,295.5314,3.43,14.32,47.84626,-54.09684
2020-04-28 16:49:01+00:00,290.2081,3.4,14.32,47.84626,-54.09684
2020-04-28 16:59:01+00:00,292.9313,3.4,14.32,47.84626,-54.09684
2020-04-28 17:09:01+00:00,291.4397,3.4,14.32,47.84626,-54.09684
2020-04-28 17:19:01+00:00,282.2097,3.4,14.24,47.84626,-54.09684
2020-04-28 17:29:01+00:00,275.1414,3.3,14.24,47.84626,-54.09684
2020-04-28 17:39:01+00:00,273.238,3.47,14.24,47.84626,-54.09684
2020-04-28 17:49:01+00:00,270.1331,3.45,14.24,47.84626,-54.09684
2020-04-28 17:59:01+00:00,261.9147,3.22,14.24,47.84626,-54.09684
2020-04-28 18:09:01+00:00,252.8748,3.27,14.24,47.84626,-54.09684
2020-04-28 18:19:01+00:00,249.9515,3.3,14.16,47.84626,-54.09684
2020-04-28 18:29:01+00:00,248.1548,3.3,14.16,47.84626,-54.09684
2020-04-28 18:39:01+00:00,242.3064,3.29,14.16,47.84626,-54.09684
2020-04-28 18:49:01+00:00,230.9598,3.26,14.16,47.84626,-54.09684
2020-04-28 18:59:01+00:00,225.7564,3.23,14.16,47.84626,-54.09684
2020-04-28 19:09:01+00:00,220.5247,3.28,14.16,47.84626,-54.09684
2020-04-28 19:19:01+00:00,215.0298,3.3,14.24,47.84626,-54.09684
2020-04-28 19:29:01+00:00,212.3748,3.3,14.24,47.84626,-54.09684
2020-04-28 19:39:01+00:00,207.6448,3.3,14.24,47.84626,-54.09684
2020-04-28 19:49:01+00:00,205.7831,3.33,14.24,47.84626,-54.09684
2020-04-28 19:59:01+00:00,208.8698,3.34,14.24,47.84626,-54.09684
2020-04-28 20:09:01+00:00,208.2581,3.32,14.24,47.84626,-54.09684
2020-04-28 20:19:01+00:00,203.2381,3.34,14.08,47.84626,-54.09684
2020-04-28 20:29:01+00:00,202.5114,3.35,14.08,47.84626,-54.09684
2020-04-28 20:39:01+00:00,203.6231,3.3,14.08,47.84626,-54.09684
2020-04-28 20:49:01+00:00,199.4148,3.37,14.08,47.84626,-54.09684
2020-04-28 20:59:01+00:00,197.6548,3.4,14.08,47.84626,-54.09684
2020-04-28 21:09:01+00:00,202.2181,3.49,14.08,47.84626,-54.09684
2020-04-28 21:19:01+00:00,207.3082,3.5,13.92,47.84626,-54.09684
2020-04-28 21:29:01+00:00,209.1697,3.5,13.92,47.84626,-54.09684
2020-04-28 21:39:01+00:00,209.3631,3.3,13.92,47.84626,-54.09684
2020-04-28 21:49:01+00:00,215.8131,3.19,13.92,47.84626,-54.09684
2020-04-28 21:59:01+00:00,219.9764,3.1,13.92,47.84626,-54.09684
2020-04-28 22:09:01+00:00,219.4931,3.1,13.92,47.84626,-54.09684
2020-04-28 22:19:01+00:00,217.5948,3.09,13.53,47.84626,-54.09684
2020-04-28 22:29:01+00:00,221.6248,3.1,13.53,47.84626,-54.09684
2020-04-28 22:39:01+00:00,227.1948,3.1,13.53,47.84626,-54.09684
2020-04-28 22:49:01+00:00,231.1248,3.13,13.53,47.84626,-54.09684
2020-04-28 22:59:01+00:00,231.5514,3.18,13.53,47.84626,-54.09684
2020-04-28 23:09:01+00:00,234.0781,3.2,13.53,47.84626,-54.09684
2020-04-28 23:19:01+00:00,243.7148,3.3,13.21,47.84626,-54.09684
2020-04-28 23:29:01+00:00,251.5531,3.3,13.21,47.84626,-54.09684
2020-04-28 23:39:01+00:00,248.6964,3.3,13.21,47.84626,-54.09684
2020-04-28 23:49:01+00:00,247.5948,3.4,13.21,47.84626,-54.09684
2020-04-28 23:59:01+00:00,256.2914,3.4,13.21,47.84626,-54.09684
